Flight Track Log - Related Links

Times and Time Zones

All times are in EST time to prevent confusion due to time zone crossing. See the FLG3325 flight status page for this flight to view local times or setup timezone preferences in your user account.

Time Position Orientation Groundspeed Altitude Reporting Facility
EST Latitude Longitude Course Direction KTS MPH feet Rate Location/Type
05:58PM 35.8542 -78.8083 203° Southwest 145 167 1,400  Level Washington Center
05:58PM 35.8139 -78.8297 203° Southwest 187 215 3,200 2,132 Climbing Washington Center
06:00PM 35.7486 -78.8525 196° South 250 288 5,700 2,508 Climbing Washington Center
06:00PM 35.6839 -78.8500 178° South 296 341 8,300 2,400 Climbing Washington Center
06:02PM 35.6828 -78.7400 91° East 319 367 10,700 2,153 Climbing Washington Center
06:03PM 35.7339 -78.6192 62° Northeast 338 389 13,000 2,213 Climbing Washington Center
06:04PM 35.7850 -78.4981 62° Northeast 360 414 15,200 2,182 Climbing Washington Center
06:05PM 35.8358 -78.3744 63° Northeast 384 442 17,400 2,034 Climbing Washington Center
06:06PM 35.8889 -78.2431 63° Northeast 407 468 19,200 1,765 Climbing Washington Center
06:07PM 35.9378 -78.1061 66° East 419 482 20,900 1,672 Climbing Washington Center
06:08PM 35.9556 -77.9528 82° East 435 501 22,600 1,664 Climbing Washington Center
06:09PM 35.9711 -77.7942 83° East 446 513 24,200 1,412 Climbing Washington Center
06:10PM 36.0153 -77.6439 70° East 459 528 25,400 1,279 Climbing Washington Center
06:11PM 36.0989 -77.5122 52° Northeast 459 528 26,800 787 Climbing Washington Center
06:12PM 36.1867 -77.3625 54° Northeast 477 549 27,000 610 Climbing Washington Center
06:13PM 36.2825 -77.2358 47° Northeast 488 562 28,000 1,261 Climbing Washington Center
06:14PM 36.3925 -77.1272 38° Northeast 488 562 29,500 1,537 Climbing Washington Center
06:15PM 36.4981 -77.0208 39° Northeast 488 562 31,100 1,412 Climbing Washington Center
06:16PM 36.6056 -76.9219 36° Northeast 488 562 32,300 942 Climbing Washington Center
06:17PM 36.7047 -76.8225 39° Northeast 494 568 33,000 353 Climbing Washington Center
06:18PM 36.8142 -76.7153 38° Northeast 494 568 33,000  Level Washington Center
06:19PM 36.9278 -76.6025 38° Northeast 499 574 33,000  Level Washington Center
06:20PM 37.0394 -76.4922 38° Northeast 499 574 33,000  Level Washington Center
06:21PM 37.1506 -76.3814 38° Northeast 499 574 33,000  Level Washington Center
06:22PM 37.2639 -76.2678 39° Northeast 505 581 33,000  Level Washington Center
06:23PM 37.3772 -76.1536 39° Northeast 512 589 33,000  Level Washington Center
06:24PM 37.4925 -76.0447 37° Northeast 517 595 33,000  Level Washington Center
06:25PM 37.6033 -75.9325 39° Northeast 517 595 33,000  Level Washington Center
06:26PM 37.7161 -75.8175 39° Northeast 517 595 33,000  Level Washington Center
06:27PM 37.8311 -75.7047 38° Northeast 522 601 33,000  Level Washington Center
06:28PM 37.9417 -75.5864 40° Northeast 522 601 33,000  Level Washington Center
06:29PM 38.0542 -75.4783 37° Northeast 517 595 33,000  Level Washington Center
06:30PM 38.1792 -75.3964 27° Northeast 511 588 33,000  Level Washington Center
06:31PM 38.3019 -75.3114 29° Northeast 501 577 33,000  Level Washington Center
06:32PM 38.4289 -75.2258 28° Northeast 501 577 33,000  Level Washington Center
06:33PM 38.5558 -75.1511 25° Northeast 496 571 33,000  Level Washington Center
06:34PM 38.6808 -75.0706 27° Northeast 491 565 33,000  Level Washington Center
06:35PM 38.8053 -74.9869 28° Northeast 491 565 33,000  Level Washington Center
06:36PM 38.9322 -74.9086 26° Northeast 491 565 33,000 -1,082 Level Washington Center
06:37PM 39.0525 -74.8272 28° Northeast 491 565 30,800 -2,341 Descending Washington Center
06:38PM 39.1686 -74.7242 35° Northeast 491 565 28,200 -2,593 Descending Washington Center
06:39PM 39.2739 -74.6075 41° Northeast 498 573 25,700 -2,783 Descending Washington Center
06:40PM 39.4742 -74.3936 39° Northeast 493 567 20,500 -2,627 Descending New York Center
06:41PM 39.5606 -74.2956 41° Northeast 477 549 18,300 -1,250 Descending New York Center
06:42PM 39.6642 -74.1822 40° Northeast 445 512 18,000 -400 Descending New York Center
06:43PM 39.7589 -74.0789 40° Northeast 440 506 17,500 -1,450 Descending New York Center
06:44PM 39.8489 -73.9858 38° Northeast 434 499 15,100 -2,300 Descending New York Center
06:45PM 39.9297 -73.9272 29° Northeast 391 450 12,900 -2,050 Descending New York Center
06:46PM 40.0189 -73.8633 29° Northeast 334 384 11,000 -950 Descending New York Center
06:47PM 40.1017 -73.8075 27° Northeast 324 373 11,000 -500 Level New York Center
06:48PM 40.1667 -73.7667 26° Northeast 328 377 10,100 -1,389 Descending New York TRACON
06:49PM 40.2500 -73.7167 25° Northeast 326 375 8,500 -1,000 Descending New York TRACON
06:50PM 40.3333 -73.6667 25° Northeast 313 360 8,100 -550 Descending New York TRACON
06:51PM 40.4000 -73.6000 37° Northeast 320 368 7,400 -500 Descending New York TRACON
06:52PM 40.4667 -73.5333 37° Northeast 301 346 7,100 -150 Descending New York TRACON
06:53PM 40.5500 -73.4833 25° Northeast 291 335 7,100 -750 Level New York TRACON
06:54PM 40.6167 -73.4667 11° North 274 315 5,600 -1,053 Descending New York TRACON
06:55PM 40.6833 -73.5000 339° North 250 288 5,100 -842 Descending New York TRACON
06:56PM 40.7333 -73.5333 333° Northwest 217 250 4,000 -1,000 Descending New York TRACON
06:57PM 40.7500 -73.6000 288° West 180 207 3,100 -450 Descending New York TRACON
06:58PM 40.7667 -73.6333 303° West 164 189 3,100 -200 Level New York TRACON
06:59PM 40.7333 -73.6833 229° Southwest 168 193 2,700 -850 Descending New York TRACON
07:00PM 40.7000 -73.7167 217° Southwest 159 183 1,400 -1,000 Descending New York TRACON
07:01PM 40.6667 -73.7333 201° Southwest 131 151 700 -700 Descending New York TRACON
07:03PM 40.6333 -73.7667 241° Southwest  Level FlightAware Approximate
07:10PM 40.6398 -73.7789 241° Southwest  Level Estimated
07:11PM 40.6398 -73.7789 241° Southwest  Level Estimated

Login

Don't have an account? Register now (free) for customized features, flight alerts, and more!